RH
18 18 17 17 16 16 16 14 14 14 13 13 12 12 11 11 11 10 10 10 10 10 10 9 10 10 10 10 10 11 11 11 11 12 12 12 12 11 11 11 11 11 11 11 11 11 10 11 10 10 12 11 12 12 11 12 13 17 27 53 75 76 78 86 96 97 95 102 103 96 88 87 78 57 65 76 63 53 53 52 37 24 25 27 28 27 24 20
19 19 18 18 17 17 16 16 16 15 14 14 13 13 12 12 11 11 11 11 10 10 9 9 9 9 9 9 9 10 10 10 10 11 11 11 11 11 11 10 11 10 11 10 10 11 9 10 10 9 11 11 11 11 12 12 20 23 19 43 47 41 79 94 89 92 96 100 101 99 87 91 96 72 70 83 77 63 54 56 48 30 24 27 28 27 26 22
19 19 19 18 18 17 17 17 16 16 15 15 15 14 13 13 12 12 12 11 11 11 10 10 10 9 9 8 9 9 9 10 9 10 10 10 11 10 11 10 11 10 10 11 9 10 10 10 9 10 10 10 11 10 12 13 22 20 18 59 48 23 68 75 62 82 96 101 101 103 99 98 104 91 83 88 93 82 63 57 57 43 26 26 29 27 27 24
20 19 19 18 18 18 17 17 16 16 16 15 15 15 14 14 13 13 12 12 12 11 11 10 10 10 9 9 9 8 8 9 8 10 9 9 10 10 10 10 10 10 10 10 10 10 9 10 9 10 9 9 11 9 11 10 16 14 15 51 38 11 36 40 53 82 90 101 103 102 105 101 100 101 98 98 103 99 83 65 58 55 36 26 29 28 29 26
20 20 19 19 18 18 18 18 17 17 17 16 16 16 15 15 14 14 13 14 13 12 12 11 11 10 10 10 9 9 8 8 8 9 8 9 9 9 10 9 10 10 10 10 10 10 9 10 9 9 9 9 10 9 10 9 11 11 12 28 23 14 19 22 58 89 92 99 104 100 101 104 100 99 102 101 100 100 102 87 67 61 48 32 28 30 30 27
21 21 20 20 20 20 19 19 19 18 18 17 17 16 16 16 15 15 15 14 14 13 13 12 12 11 11 11 10 9 8 8 8 8 8 8 8 9 9 9 9 9 9 9 9 10 9 9 9 9 9 9 9 9 9 9 10 11 12 17 18 18 17 35 76 96 97 98 95 85 79 88 93 97 104 100 96 97 102 102 86 68 56 43 30 30 31 29
22 22 22 21 21 21 20 19 19 18 18 17 17 17 16 16 15 15 15 14 14 14 13 13 13 12 12 11 11 10 9 8 8 8 7 7 8 8 8 8 9 9 9 9 9 9 9 9 9 9 9 9 9 9 9 8 10 11 12 12 14 16 19 47 78 91 105 97 77 69 59 52 57 80 99 96 98 101 98 103 100 77 62 54 36 30 32 31
23 23 22 22 21 21 20 20 19 19 18 18 17 17 16 16 15 15 14 14 14 13 13 13 12 12 12 11 11 11 10 9 9 9 8 7 7 7 8 8 8 9 8 8 9 8 8 8 8 9 8 9 9 9 9 8 9 9 10 10 11 13 15 30 49 74 100 82 56 62 56 31 29 50 68 79 92 101 102 98 94 81 68 61 46 33 30 32
24 23 23 22 21 21 21 20 19 19 18 18 18 17 17 16 16 16 15 15 14 14 13 13 12 12 12 11 11 11 10 10 9 9 9 8 8 7 7 8 8 8 8 8 8 8 8 8 8 8 8 9 9 8 8 8 8 8 9 9 10 10 12 20 27 47 69 66 66 78 60 29 26 30 38 69 90 99 106 89 73 73 71 65 55 41 32 32
25 24 23 23 22 21 21 20 19 19 19 19 18 18 17 17 17 16 16 16 15 15 14 13 13 12 12 11 11 11 10 10 10 9 10 9 8 8 8 8 8 7 8 8 7 8 7 8 8 7 8 8 8 9 8 8 8 8 9 8 10 9 10 13 21 52 76 75 89 93 62 43 50 42 33 70 101 96 100 86 60 61 69 69 62 50 38 31
26 25 24 23 23 22 21 21 20 20 20 20 19 19 19 19 19 18 18 17 16 16 15 14 14 13 12 12 11 11 10 10 10 10 9 10 9 8 8 8 8 8 8 8 7 7 7 7 7 7 8 8 8 8 8 9 8 8 9 8 9 9 10 9 19 65 80 59 71 82 68 69 77 58 28 52 98 94 89 86 59 51 64 72 68 57 46 34
26 25 25 24 23 22 22 22 21 21 21 21 21 21 21 21 21 20 20 19 18 17 17 16 15 14 13 13 12 11 11 10 10 10 9 10 10 9 9 8 8 8 8 8 8 7 7 7 7 7 8 8 8 8 7 8 8 8 9 9 9 8 10 10 14 38 42 38 67 82 77 71 62 66 52 44 81 97 92 88 61 48 61 72 73 64 55 42
27 26 25 24 24 23 23 23 22 22 22 22 22 22 22 22 21 21 21 20 19 18 18 17 16 15 14 13 13 12 12 11 10 10 10 9 10 9 9 9 9 9 8 9 8 7 7 6 7 7 8 8 8 8 8 8 8 8 9 8 9 9 8 10 17 19 15 31 59 73 76 57 37 69 81 51 66 100 100 90 69 49 54 70 76 70 61 49
27 27 26 26 25 25 25 24 24 24 23 23 23 23 23 22 22 21 20 20 19 19 18 17 16 15 15 13 13 13 12 12 11 11 10 10 10 9 9 9 9 9 9 9 8 8 7 7 7 7 7 7 8 8 8 8 8 8 8 9 8 9 9 8 14 12 10 20 30 48 63 47 31 48 60 41 53 94 101 92 83 59 48 63 75 74 67 56
28 28 28 27 27 27 27 27 26 26 25 25 24 24 23 22 22 21 21 20 19 19 18 17 16 15 15 14 13 13 12 12 12 11 11 11 10 10 10 9 9 9 9 9 9 9 8 8 7 7 8 7 8 8 8 8 8 8 7 10 9 9 10 8 10 9 12 17 13 24 37 33 31 34 43 42 43 83 106 92 89 74 51 59 73 76 73 63
30 29 29 30 29 29 29 29 28 28 27 27 26 25 24 23 22 21 21 20 19 19 18 17 17 16 15 14 13 13 12 12 11 11 11 11 10 11 10 10 10 9 9 9 9 9 8 8 8 8 8 7 8 7 8 8 7 9 7 8 9 8 9 8 10 7 9 21 17 13 19 21 23 24 43 54 38 54 90 94 93 86 61 60 73 75 76 70
31 31 31 31 31 31 30 30 30 30 29 28 27 25 24 23 23 22 21 20 20 19 18 17 17 16 16 14 14 13 13 12 12 12 11 11 10 10 11 11 11 10 9 9 9 9 8 8 8 8 8 7 9 7 8 8 6 8 8 8 9 8 10 7 9 9 9 28 32 15 14 19 18 18 32 52 42 26 55 94 101 90 70 66 73 72 78 78
31 32 32 32 32 32 31 31 31 30 29 28 27 26 25 24 23 22 22 21 20 19 18 18 16 16 16 15 15 14 14 13 13 13 12 12 11 10 11 11 11 11 10 9 9 9 8 9 8 8 9 8 8 8 7 7 7 8 8 8 9 8 9 8 9 10 9 26 41 28 16 18 26 33 28 29 35 24 41 88 102 88 73 69 75 70 75 84
32 32 32 32 32 32 32 31 31 30 29 28 27 27 25 25 24 22 22 20 20 19 17 17 17 16 16 15 15 14 14 14 13 14 12 12 12 11 11 10 11 11 11 11 9 9 8 9 9 8 9 8 7 8 7 7 7 8 8 8 9 9 8 9 9 9 10 21 41 43 22 16 28 39 34 20 21 27 37 74 98 88 71 69 77 70 70 85
32 32 32 33 32 32 31 30 31 30 29 29 28 28 26 25 25 23 22 21 20 19 18 18 17 17 16 16 16 15 15 15 14 14 13 13 12 12 12 11 11 11 12 12 10 10 9 8 9 8 8 8 8 8 7 8 8 7 9 8 8 10 8 9 9 8 11 13 30 47 33 21 23 28 44 37 21 27 32 55 84 83 76 81 84 75 70 79
32 32 32 32 32 31 31 30 30 30 29 30 28 28 27 25 25 23 22 22 21 20 19 18 18 17 17 16 16 16 16 16 15 14 14 13 13 12 12 11 11 11 12 13 11 10 9 9 8 8 8 8 8 8 8 8 8 8 8 9 9 9 9 9 9 8 11 11 16 36 38 24 17 33 66 59 35 47 50 48 71 83 91 101 96 86 75 72
32 32 31 31 32 31 31 31 30 30 30 29 27 27 26 25 25 24 23 22 21 20 19 19 18 18 18 18 17 16 17 16 16 15 14 14 13 13 12 12 12 12 12 12 13 11 10 10 8 8 8 8 8 8 9 8 8 9 7 8 9 9 10 7 9 8 8 13 8 19 38 35 34 60 85 73 56 72 64 45 66 89 98 108 105 97 87 75
31 32 31 31 32 32 32 31 30 30 29 27 27 27 27 27 26 26 25 25 23 21 20 19 18 18 18 18 18 17 18 17 17 17 16 15 14 13 12 13 12 12 12 12 12 12 11 10 9 9 8 8 10 8 8 9 8 9 7 8 8 8 11 8 9 10 9 18 12 13 34 43 58 85 92 78 67 70 55 36 66 98 98 104 109 103 95 83
32 32 32 32 32 32 31 30 29 28 28 29 29 30 32 32 33 32 32 32 29 26 24 21 18 18 17 17 18 18 18 17 18 18 17 16 15 15 14 13 13 12 12 12 12 12 11 11 10 10 9 8 9 8 8 8 8 9 8 8 9 7 10 9 8 10 13 20 14 15 34 42 55 78 89 86 76 71 54 34 64 102 101 103 112 105 98 90
33 32 31 31 30 29 29 29 31 32 34 37 39 42 44 43 43 41 40 40 37 33 31 24 21 21 18 18 17 17 18 18 18 18 18 17 15 15 15 13 14 13 13 12 12 13 11 11 10 9 10 9 8 9 8 8 7 8 8 7 9 8 8 10 9 9 12 15 11 12 38 55 52 62 83 93 90 83 65 52 75 100 100 103 109 103 95 87
30 29 29 29 30 32 35 38 42 46 49 51 53 55 55 53 51 48 46 46 44 39 35 29 26 24 20 19 18 17 18 18 18 19 18 18 16 15 15 14 14 13 13 13 12 14 12 11 11 10 10 9 9 9 8 9 8 7 8 7 8 8 8 9 9 11 12 18 18 12 29 47 43 57 86 98 99 89 68 68 88 99 100 102 94 84 77 73
29 31 34 38 42 46 49 52 55 57 58 57 58 58 56 55 53 51 49 49 50 48 39 32 31 29 22 19 19 18 18 18 19 19 18 17 16 15 15 14 15 14 14 14 13 14 13 12 11 10 10 10 9 10 8 9 8 7 8 7 8 8 8 9 8 10 12 18 25 21 29 34 23 52 93 100 103 97 78 74 77 82 91 86 67 57 59 65
41 45 50 54 55 56 57 56 57 57 56 55 56 56 55 54 52 52 50 47 53 56 47 37 33 32 27 20 19 19 18 19 19 19 18 17 16 16 16 14 15 14 13 14 14 14 13 13 12 10 11 10 9 10 9 9 8 8 8 7 8 8 7 9 8 10 9 11 16 17 28 31 20 56 100 99 101 104 95 92 78 67 73 69 58 58 63 67
56 57 58 60 58 57 56 56 57 57 56 57 59 59 58 57 53 51 49 47 54 58 53 46 37 35 33 23 19 20 19 19 20 19 18 18 17 16 17 16 15 15 14 14 14 15 14 13 13 11 11 11 10 10 9 9 8 8 9 7 7 8 7 8 8 9 9 8 12 9 18 29 30 66 105 100 98 104 100 103 92 74 78 85 86 85 80 72
58 60 59 59 59 59 58 59 62 61 63 65 67 68 67 64 58 54 50 46 52 56 54 50 43 40 38 28 20 19 20 20 19 20 18 17 18 17 17 17 16 15 15 15 14 15 15 14 13 13 11 11 10 11 10 9 9 8 9 8 7 7 7 8 8 9 9 8 11 9 15 29 31 58 100 105 99 102 100 102 98 90 97 102 101 99 94 83
56 60 61 61 62 64 63 66 70 69 70 73 74 76 76 71 62 58 55 48 48 53 54 52 47 44 41 32 23 19 20 21 19 19 19 18 18 18 18 17 16 16 15 15 15 15 15 15 14 13 13 12 11 11 10 9 10 9 8 8 8 8 7 8 8 8 9 8 9 9 11 24 28 37 73 99 103 102 101 101 98 99 106 104 100 101 101 98
59 61 66 68 68 70 70 71 76 76 74 76 78 81 81 73 62 58 58 53 49 51 54 53 48 45 44 37 26 20 20 22 22 20 19 19 19 18 19 18 17 17 16 15 15 15 16 15 16 15 13 13 12 11 11 10 10 9 9 9 7 8 7 8 8 7 9 7 8 10 6 13 28 31 39 61 86 100 101 101 100 101 105 102 101 103 101 102
64 62 68 72 71 73 75 73 75 76 74 76 80 84 85 74 63 60 57 56 58 52 48 53 53 47 46 42 29 21 23 26 25 22 19 19 20 19 20 21 19 19 18 17 16 16 17 16 16 16 14 14 13 12 11 11 11 9 10 9 8 8 8 7 8 7 9 8 6 10 8 8 20 33 29 26 55 94 102 99 101 102 101 98 99 102 100 100
64 63 66 69 71 73 73 71 73 74 74 76 83 91 89 75 69 67 56 59 72 63 46 50 56 51 48 46 35 22 24 31 28 22 20 20 20 21 22 22 21 23 21 19 18 18 18 17 17 16 16 15 14 14 13 11 11 10 10 9 8 9 8 7 8 7 7 9 7 6 9 8 8 23 32 26 50 94 104 100 101 100 99 99 100 101 100 102
65 67 68 69 70 72 72 69 70 73 74 77 88 97 89 75 73 69 57 62 78 73 57 52 52 54 53 50 41 26 23 33 33 24 20 21 21 22 24 22 22 25 24 22 22 22 20 19 18 17 16 16 15 14 14 13 12 11 10 10 9 8 9 8 7 8 7 6 8 7 7 10 7 12 25 36 67 101 103 101 103 100 100 101 101 102 100 104
67 68 69 71 72 70 69 67 65 66 64 69 85 91 81 71 69 62 54 60 65 62 67 66 54 54 58 55 48 32 22 33 38 29 20 20 23 23 24 24 24 26 27 25 26 26 24 21 20 20 18 17 17 15 14 14 13 12 11 10 10 8 9 9 7 8 8 6 9 9 5 7 8 8 12 26 68 104 107 104 104 102 104 104 104 103 97 102
72 72 72 76 75 68 66 65 62 58 55 62 74 74 66 62 60 55 52 57 53 46 61 77 69 59 57 58 55 39 26 33 41 35 24 19 22 25 24 24 25 27 27 28 31 29 26 26 24 23 22 20 18 16 15 15 14 13 12 11 10 10 8 9 9 7 7 8 7 9 14 13 7 9 11 10 32 70 92 102 106 105 106 109 110 102 89 93
80 80 79 82 78 68 64 64 62 58 56 61 65 61 57 56 54 52 52 58 55 44 49 65 76 75 60 52 60 51 31 32 41 40 32 23 21 24 25 24 25 27 26 30 33 30 28 32 31 26 26 25 21 19 17 16 15 14 13 12 11 11 10 8 9 8 7 8 5 10 22 22 8 8 18 15 11 22 45 71 91 97 101 108 109 100 93 93
84 83 86 87 78 70 65 61 62 60 57 60 61 58 55 53 49 46 50 56 55 52 50 48 67 89 74 50 60 65 42 32 42 43 38 33 24 21 23 23 24 26 28 32 32 29 32 38 37 33 32 29 26 23 20 19 18 16 15 14 12 12 12 10 9 9 8 7 7 8 14 22 25 18 13 15 13 8 15 40 64 75 84 100 106 101 100 103
80 78 87 89 76 70 67 61 63 63 58 59 60 58 55 50 43 39 41 45 46 52 56 47 55 89 93 62 57 70 58 40 41 41 42 44 34 24 21 22 25 27 30 32 28 29 36 40 42 42 37 32 32 30 25 23 23 19 17 15 14 13 12 12 11 10 9 7 7 7 6 21 41 36 16 8 10 8 8 24 45 54 68 90 103 104 102 101
74 72 85 90 76 70 70 65 65 62 57 59 60 57 53 44 39 38 36 36 40 45 50 50 51 76 99 80 59 69 70 55 43 36 40 47 44 37 29 25 28 27 28 29 28 33 40 41 46 47 38 36 41 37 29 26 26 23 21 18 17 16 13 13 12 10 11 8 7 8 5 11 24 29 22 10 7 9 5 12 26 37 61 86 92 98 102 99
71 72 83 88 77 72 75 72 66 58 55 58 60 57 51 42 39 40 36 35 41 41 40 47 50 65 93 91 70 67 71 67 55 40 38 44 49 53 45 32 26 22 22 26 33 43 44 38 40 43 43 43 44 38 30 29 29 28 26 23 22 20 17 16 15 12 12 10 8 8 7 8 11 17 21 12 6 11 8 7 12 19 52 84 86 88 98 101
70 72 81 86 78 76 81 78 65 55 54 60 63 57 49 44 40 39 38 36 41 41 38 45 53 63 85 96 85 70 66 77 76 54 41 43 53 66 62 45 34 25 22 28 39 46 39 35 37 39 45 48 42 36 34 34 36 35 31 27 24 24 21 19 18 15 14 12 9 9 8 9 10 14 20 17 12 10 7 9 11 8 30 63 76 81 89 98
66 66 77 85 80 80 87 81 65 57 57 61 63 56 48 45 39 38 42 40 40 41 41 52 57 59 79 101 98 77 68 84 92 72 53 49 59 71 67 55 47 35 27 31 38 36 29 35 45 41 42 44 39 40 45 46 44 38 33 29 26 26 25 21 20 18 17 14 11 10 10 10 10 11 15 23 28 20 9 15 20 13 16 35 56 69 80 95
58 57 70 82 84 90 96 85 66 60 61 62 60 53 46 43 39 41 46 44 41 39 43 55 53 53 81 106 103 89 79 82 88 79 65 58 63 70 64 59 59 52 41 34 30 28 31 42 47 42 40 40 39 45 50 51 45 36 35 33 29 29 27 22 21 21 19 16 13 13 12 10 11 10 8 18 32 27 14 21 32 25 15 18 34 51 72 96
56 53 61 77 93 104 103 87 69 63 64 62 57 50 44 41 40 42 45 45 43 38 41 48 44 53 89 106 101 100 92 80 79 77 72 69 70 74 70 63 69 73 62 47 34 31 38 46 45 41 39 38 39 41 43 46 44 37 36 35 30 31 29 23 22 21 19 17 16 15 13 12 11 11 10 10 17 24 24 29 39 34 19 13 20 34 57 86
61 50 56 84 106 110 100 85 73 69 68 62 54 47 44 42 40 40 43 45 44 38 37 41 38 51 90 105 98 102 100 89 81 73 74 81 82 86 85 70 70 78 70 59 54 45 41 43 42 40 38 37 39 39 37 42 43 38 36 34 33 34 30 26 24 20 18 18 18 17 14 14 12 10 12 10 7 17 28 35 39 33 22 14 14 26 43 60
59 50 70 99 109 102 94 87 81 76 69 60 53 48 47 46 42 40 42 45 45 38 33 38 35 41 79 106 100 99 103 97 86 75 79 91 91 94 101 90 79 78 70 66 67 61 54 51 46 44 43 42 42 42 40 43 44 44 41 36 38 39 31 28 27 21 18 19 19 18 14 14 15 11 11 12 10 13 21 28 31 31 35 31 14 18 36 41
55 60 84 100 100 99 100 95 86 75 66 60 56 53 52 51 46 42 44 45 45 39 33 39 38 39 72 103 99 98 105 98 91 87 83 88 93 98 107 106 96 88 78 70 68 64 59 57 55 56 56 51 48 48 49 48 46 47 45 39 39 39 32 31 29 22 22 22 20 19 16 15 17 15 12 11 12 15 17 21 24 31 45 47 25 18 30 33
57 67 83 93 100 106 106 97 83 70 65 62 59 58 58 56 48 43 45 47 46 40 35 41 47 52 76 99 96 97 104 99 99 99 87 80 89 102 109 106 102 100 88 73 69 67 58 53 55 59 59 56 52 51 52 50 45 45 45 41 39 36 32 32 30 26 26 26 21 21 20 18 17 17 16 13 10 13 16 17 22 28 34 39 34 30 30 25
64 79 90 98 104 106 103 92 75 65 64 65 68 70 66 60 52 44 44 48 49 44 38 41 55 71 87 97 97 98 102 100 100 103 95 82 81 96 105 97 93 100 97 85 79 71 58 55 57 58 59 58 54 55 55 51 47 44 40 37 33 31 28 27 27 27 26 25 24 23 23 22 21 19 18 16 13 13 13 13 16 21 27 37 43 39 34 24
74 93 99 100 102 105 99 81 67 70 78 83 87 86 75 66 59 46 42 50 53 47 42 40 54 81 98 96 94 97 99 100 101 102 101 90 81 87 90 83 82 91 99 101 92 73 59 59 61 59 62 61 56 54 52 47 43 38 33 31 29 28 27 25 25 26 25 24 24 24 24 23 25 25 22 19 17 14 13 13 11 13 22 35 44 42 38 32
Wind_Speed
12 12 13 13 14 15 15 16 17 18 19 20 22 23 24 24 25 26 27 28 29 30 31 32 33 34 35 36 37 38 39 40 40 39 39 39 39 38 38 37 36 35 34 33 32 32 30 29 28 27 26 25 24 23 23 21 19 18 16 14 13 10 9 8 5 5 5 5 5 8 9 10 10 12 15 16 18 20 23 25 26 26 28 29 30 30 30 31
11 12 12 12 13 14 14 15 15 16 17 18 20 21 22 23 24 25 26 26 27 28 29 30 32 33 34 35 36 38 39 40 40 39 39 41 41 40 40 39 38 38 37 35 34 33 32 31 30 29 28 27 27 25 25 24 20 19 18 17 17 13 10 8 7 7 6 5 5 6 9 9 9 10 12 14 15 17 21 23 25 25 26 27 28 29 30 30
11 11 12 12 13 13 14 14 15 16 16 17 18 19 20 21 22 23 24 25 26 27 28 29 30 31 33 34 35 37 38 40 40 38 40 42 41 41 41 41 40 40 39 38 37 36 34 33 32 31 30 29 28 27 28 26 22 20 19 17 17 16 13 11 9 9 6 6 7 4 6 9 9 8 12 14 14 14 18 21 23 24 24 25 27 28 29 29
10 11 11 12 12 13 13 14 15 15 16 17 18 18 19 20 21 22 23 24 25 26 27 28 29 30 31 32 34 36 37 39 38 37 41 42 41 41 42 42 42 41 41 40 39 38 36 35 34 33 32 31 30 30 30 28 25 22 20 18 18 18 16 14 12 10 7 6 7 3 2 6 7 6 11 15 14 12 15 20 21 23 24 24 25 27 28 28
11 11 12 12 12 13 14 14 15 16 16 17 18 19 19 20 21 22 23 24 25 26 26 28 28 29 30 31 33 34 36 38 36 37 41 40 40 41 42 43 43 43 43 42 41 40 39 38 36 35 34 33 32 32 31 29 27 24 23 21 20 19 17 17 15 12 9 8 7 4 2 1 2 5 9 13 13 12 14 18 20 21 22 23 23 25 27 27
12 12 12 13 13 14 14 15 16 16 17 18 19 19 20 21 22 23 23 24 25 26 27 28 29 29 30 31 32 34 35 36 34 36 40 39 39 41 41 42 43 44 44 43 43 42 41 40 38 37 36 35 34 34 33 31 29 26 25 23 23 21 19 20 17 13 13 12 10 8 7 5 4 5 6 9 12 12 13 16 18 19 20 22 22 23 25 26
13 13 14 14 14 15 15 16 17 17 18 19 20 20 21 22 23 24 25 25 26 27 28 29 30 30 31 32 32 34 35 35 34 36 39 39 38 39 40 41 43 44 44 44 44 44 43 41 40 39 38 37 36 36 35 32 31 29 27 26 26 24 23 22 19 16 15 15 13 11 10 8 7 7 6 6 7 9 10 14 16 17 18 20 21 21 22 24
14 15 15 15 16 16 17 17 18 19 20 20 21 22 23 24 24 25 26 27 28 29 29 30 31 32 32 33 34 35 35 35 36 36 38 38 37 38 39 40 41 42 43 44 45 45 44 42 42 42 41 39 38 38 37 35 33 31 30 29 29 28 27 24 21 20 19 18 16 14 13 12 11 9 8 8 7 7 8 11 13 15 16 17 19 20 20 22
16 16 17 17 17 18 19 19 20 21 21 22 23 24 24 25 26 27 28 29 30 31 31 32 33 34 34 35 35 36 36 36 37 37 37 38 38 38 38 38 39 40 42 43 45 45 44 43 44 43 41 40 41 40 39 37 35 33 33 32 30 30 29 26 24 24 23 21 18 16 16 15 14 12 10 8 8 10 10 10 11 13 14 15 17 19 19 20
17 18 18 19 19 20 20 21 22 22 23 24 25 26 26 27 28 29 30 31 32 33 34 34 35 36 36 36 37 37 38 38 38 38 38 38 39 38 38 38 39 39 40 42 43 44 44 44 45 43 41 42 43 42 41 40 37 35 35 34 32 32 31 29 28 27 24 20 19 18 16 15 15 13 10 8 8 11 11 10 11 11 12 13 15 17 18 19
19 19 20 20 21 22 22 23 23 24 25 26 27 27 28 29 30 31 32 33 34 35 36 36 37 38 38 38 38 39 39 39 39 39 39 39 39 39 39 38 39 39 39 40 41 43 44 44 44 42 42 45 44 43 42 42 40 38 38 36 35 35 34 32 31 29 25 21 21 20 16 15 15 14 12 11 11 13 12 11 11 10 10 11 12 15 17 18
21 21 22 23 23 23 24 25 25 26 27 28 28 29 30 31 32 33 34 34 35 36 37 38 39 39 40 40 40 40 40 40 40 40 40 40 40 40 40 39 39 39 39 39 40 41 42 43 43 41 44 45 43 44 44 44 43 41 40 38 37 38 36 34 33 33 29 24 23 20 16 16 17 16 14 13 13 13 13 12 10 8 9 10 11 13 15 17
23 23 24 25 25 26 26 26 27 28 28 29 29 30 31 32 33 34 35 36 36 37 38 39 40 41 41 41 41 41 41 41 41 41 41 41 41 41 41 40 40 39 39 39 40 41 41 42 41 42 44 44 43 45 45 45 44 42 41 40 40 39 38 37 35 34 33 29 26 23 20 20 20 19 16 15 14 13 11 11 9 8 9 10 9 11 13 15
25 26 26 27 27 28 28 29 29 29 30 30 30 31 31 32 33 34 35 36 37 38 38 39 40 41 41 41 41 41 41 41 41 41 41 41 41 41 41 42 41 40 40 40 40 40 40 41 41 42 44 43 44 46 45 46 46 44 42 42 41 41 40 39 37 36 35 33 31 28 24 22 22 22 20 18 16 14 11 10 9 8 9 10 8 9 11 13
27 28 28 29 30 30 31 31 31 31 31 32 32 32 33 33 34 34 35 36 37 38 38 39 40 40 41 41 41 40 40 40 41 41 41 41 41 41 42 42 42 42 41 40 40 40 40 41 40 42 42 42 44 45 45 46 46 45 43 43 43 43 42 41 39 38 37 35 35 33 28 26 25 23 22 21 19 18 13 10 10 9 9 10 8 7 9 11
29 30 31 32 32 32 33 33 33 34 34 34 34 34 34 34 35 35 35 36 36 37 37 38 38 39 40 40 39 39 39 39 39 40 40 40 40 41 41 42 43 43 42 41 41 40 41 41 41 41 42 42 43 44 45 46 46 45 44 43 44 44 44 42 41 40 38 36 37 37 33 30 29 26 24 23 23 21 17 13 11 11 10 10 9 7 7 9
31 32 33 34 35 35 35 36 36 36 36 36 36 36 36 36 36 36 36 36 36 36 36 36 36 37 38 38 38 38 37 38 38 38 39 39 39 40 40 42 43 44 44 43 42 41 41 41 41 42 42 42 42 43 44 45 46 45 44 44 45 45 45 43 42 41 40 38 37 37 36 32 32 30 28 27 25 23 21 17 14 13 12 11 10 7 6 8
34 35 35 36 37 37 38 38 38 38 38 38 38 38 37 37 37 37 36 36 36 36 35 35 35 35 36 36 36 36 36 36 37 37 38 38 38 39 39 40 42 44 45 44 44 43 43 42 42 42 42 42 42 43 43 43 44 44 44 45 45 46 46 44 44 43 42 40 38 38 37 35 33 31 31 32 28 25 23 20 16 15 14 12 11 8 6 6
36 37 38 39 39 39 39 39 40 40 40 40 40 39 39 38 38 37 37 36 36 35 35 34 33 33 34 34 34 34 34 35 35 36 37 37 38 38 38 39 41 43 44 45 45 44 44 43 43 43 43 42 42 42 42 42 43 43 44 45 45 46 47 46 46 45 44 42 39 38 39 38 36 33 33 33 30 27 25 21 17 16 15 14 12 9 8 6
38 39 39 40 40 40 40 40 41 41 41 41 41 40 40 39 38 38 37 36 35 35 34 33 33 32 33 33 32 32 32 33 34 35 36 36 37 37 38 38 39 41 43 45 46 45 45 44 44 44 43 42 41 41 41 41 42 42 44 44 45 47 47 47 47 46 45 44 41 39 39 39 39 36 34 32 31 29 27 23 18 17 17 16 13 11 9 8
39 40 40 41 41 41 41 41 41 42 41 41 41 40 40 39 38 37 36 35 35 34 34 33 32 32 32 32 32 31 31 32 32 33 34 35 36 36 37 38 38 40 42 44 46 45 45 45 45 45 43 41 40 40 41 41 41 42 43 44 45 47 48 48 47 47 46 45 44 41 39 40 39 37 34 32 30 29 28 25 20 18 19 18 15 13 10 10
40 40 41 41 42 42 42 42 42 42 41 41 40 39 38 37 35 35 34 33 33 33 32 32 32 31 31 31 31 30 30 31 31 31 32 33 34 35 37 37 38 39 41 43 44 44 45 45 45 44 42 40 40 41 42 41 42 43 44 45 46 47 48 48 47 46 46 46 46 44 41 40 40 37 35 32 31 30 29 26 22 20 21 20 18 15 12 12
40 41 41 41 42 42 42 42 41 41 39 38 37 35 34 33 32 32 31 31 31 30 30 30 30 30 30 30 31 30 30 29 29 30 31 31 33 34 35 36 37 39 40 42 43 44 44 45 44 43 42 43 44 44 43 42 43 44 44 44 45 46 47 48 47 46 47 47 47 46 43 42 41 38 35 34 33 31 30 29 25 23 24 23 20 18 15 14
41 41 41 41 41 41 41 39 38 36 35 33 32 31 31 30 29 29 29 29 29 28 28 28 27 28 28 28 29 29 29 28 28 28 29 30 31 32 33 35 36 38 39 40 42 43 43 44 44 44 45 46 45 45 43 43 44 45 45 45 45 45 45 46 47 47 48 48 48 47 45 44 44 41 38 37 35 32 31 31 28 26 26 25 23 21 20 18
40 40 40 39 38 37 36 34 32 32 31 30 29 29 29 29 28 28 27 28 29 27 27 27 26 26 26 26 26 27 27 27 26 27 27 28 29 29 31 33 35 37 38 39 41 42 43 44 45 45 46 46 45 45 44 44 45 46 45 45 44 44 45 45 46 47 49 49 49 48 47 45 45 44 41 39 37 33 31 31 31 30 29 27 25 24 24 22
37 37 36 34 32 31 30 29 29 29 29 29 29 29 29 29 29 28 27 27 29 28 27 26 25 25 25 25 25 25 25 25 24 24 25 26 27 27 29 31 33 35 37 38 40 41 43 43 44 44 45 46 45 45 44 44 46 46 45 43 43 43 43 42 42 45 48 50 50 51 49 48 46 44 41 38 36 35 34 33 33 32 31 30 28 27 27 26
31 30 30 29 28 28 28 28 28 29 29 29 29 29 30 29 29 28 27 26 28 29 28 25 24 25 25 24 24 23 23 23 23 23 23 24 25 26 27 29 31 33 35 37 39 41 43 43 44 44 44 45 45 45 45 46 47 45 42 42 42 42 42 42 41 44 49 51 52 52 51 49 48 44 39 34 33 34 35 36 35 34 33 32 31 31 30 29
27 26 27 28 28 28 28 28 28 28 28 28 29 29 29 29 29 29 28 26 26 28 29 26 24 24 25 24 23 22 22 21 21 22 22 23 23 24 25 27 30 32 34 36 39 41 42 43 44 44 44 44 45 45 47 47 45 41 41 44 44 44 45 45 45 47 52 53 53 54 52 49 49 46 39 33 31 31 33 36 36 36 35 33 32 32 31 30
26 26 27 28 28 28 28 28 28 28 28 28 28 29 29 29 29 29 28 26 26 27 27 27 26 24 24 24 22 21 20 20 20 20 21 22 22 23 24 26 28 30 32 35 37 39 41 43 44 44 44 44 45 45 46 45 42 41 44 46 46 46 46 46 45 47 50 52 53 55 53 51 51 49 43 37 33 31 32 34 35 35 34 31 29 27 27 28
26 27 27 28 28 29 28 28 29 29 29 29 29 29 30 30 29 29 28 26 26 27 27 26 26 25 25 25 23 21 19 19 19 19 20 21 21 22 23 24 26 28 31 34 36 38 40 42 43 43 44 44 44 45 45 44 43 44 46 46 45 46 46 46 45 45 48 51 53 54 54 53 52 51 48 42 37 35 35 35 35 35 34 32 29 25 24 26
26 27 28 28 29 30 29 29 30 30 30 30 30 31 31 31 30 29 29 27 26 27 27 26 25 25 24 24 23 21 19 19 19 19 20 20 21 21 22 23 25 27 29 32 35 37 39 40 41 43 44 44 44 44 44 44 44 45 45 46 46 46 47 48 47 47 49 52 53 54 55 53 51 53 53 47 42 41 39 37 37 37 35 33 31 28 26 25
27 27 29 30 30 31 31 31 31 32 31 31 32 32 32 32 31 30 29 28 27 26 26 27 25 24 24 23 23 22 20 18 19 19 20 20 20 20 21 22 24 26 28 30 33 34 36 38 40 41 42 43 44 44 44 44 44 44 45 46 46 46 47 49 49 49 51 52 53 53 54 53 51 53 56 52 47 46 44 40 40 39 36 34 32 31 29 27
30 29 30 31 32 32 33 33 33 34 33 33 34 34 34 33 31 30 29 27 28 27 26 25 26 24 23 22 23 21 19 19 19 19 19 19 20 19 20 22 23 25 27 29 30 31 34 36 37 39 41 42 42 43 44 44 44 44 45 46 46 46 48 49 50 51 51 52 53 52 51 51 52 54 56 55 52 51 49 45 43 42 39 36 34 33 31 29
31 31 31 33 33 34 35 35 35 36 35 35 36 36 37 35 32 31 29 26 28 29 26 24 25 25 23 22 23 21 19 19 19 19 18 19 19 18 20 22 23 24 26 27 27 29 31 33 35 37 38 39 40 41 42 43 43 44 45 45 46 47 48 49 49 50 51 51 52 51 49 50 53 56 56 56 56 55 53 49 47 45 42 39 36 34 34 33
33 33 33 34 34 35 36 36 36 37 37 36 36 37 38 35 32 31 29 26 27 29 27 25 24 24 23 22 22 22 19 18 19 18 17 17 17 18 20 22 22 24 26 26 26 28 29 31 32 34 35 36 38 40 41 42 43 44 44 44 45 47 49 49 49 49 50 52 51 50 49 49 52 55 56 57 58 58 56 53 50 47 45 42 38 36 35 35
33 34 34 35 36 36 36 36 36 36 37 36 35 37 36 33 31 30 28 27 28 28 27 27 25 24 24 22 22 22 19 18 19 18 15 15 16 18 20 21 22 24 26 26 26 28 29 29 30 31 33 34 36 38 40 40 42 43 43 44 45 46 48 48 49 49 50 52 51 51 51 50 51 54 58 59 60 60 59 56 54 50 46 44 42 39 35 34
34 34 35 36 37 37 36 36 36 36 36 34 34 35 34 31 30 29 28 28 31 29 26 27 27 25 25 23 22 22 20 18 19 18 15 14 15 17 20 20 22 25 26 26 27 29 29 28 29 30 31 32 34 36 37 38 40 41 42 43 44 45 47 48 48 49 50 51 51 50 49 50 52 54 56 59 61 61 58 55 54 51 45 41 42 42 39 37
34 35 36 38 38 36 36 36 35 35 35 34 34 34 33 31 31 31 30 30 32 32 29 28 27 26 26 24 21 22 22 19 19 19 16 14 14 17 20 20 21 24 26 27 29 30 28 27 28 29 30 31 32 34 35 36 37 39 40 42 43 44 45 47 47 49 51 51 51 49 48 50 54 54 54 56 60 63 60 58 57 53 44 38 39 41 43 43
34 34 36 39 38 36 36 35 35 35 34 34 35 35 34 33 33 33 32 32 33 33 32 30 27 27 29 25 20 22 24 20 20 20 16 14 15 16 18 20 21 22 25 28 30 29 28 28 29 29 29 30 31 32 33 34 35 37 38 40 41 42 44 46 47 49 50 51 51 50 50 52 52 53 55 56 57 61 63 63 62 57 51 43 40 43 45 46
35 34 37 40 38 36 36 35 34 35 35 36 36 36 36 36 36 35 34 34 35 34 34 32 29 28 30 27 22 23 24 22 22 22 17 16 17 16 16 18 20 22 25 28 29 28 28 29 28 29 30 30 29 31 32 32 33 35 36 37 39 40 42 45 46 48 49 50 50 50 51 53 52 52 55 57 57 59 61 64 64 61 59 53 48 47 45 43
36 34 38 42 39 36 37 36 35 36 36 36 37 38 38 37 37 38 37 36 36 36 36 34 31 30 30 29 25 24 24 24 25 25 20 18 19 16 14 17 21 23 25 26 26 27 29 30 30 30 30 29 29 31 32 31 31 33 34 35 36 38 41 43 44 45 47 49 50 51 51 54 54 54 56 57 58 58 59 62 63 62 62 60 55 51 45 40
37 35 38 43 41 37 37 37 36 36 36 37 38 38 38 38 38 39 39 37 36 39 38 35 33 32 32 29 26 26 26 25 27 27 23 20 20 17 17 21 23 21 21 22 25 29 32 32 31 31 30 29 30 32 31 30 30 31 33 33 34 37 38 40 42 44 46 48 49 50 50 52 55 55 57 57 58 59 60 61 63 64 63 61 58 55 49 41
38 37 39 43 43 39 38 38 37 36 37 38 38 38 38 39 39 39 39 38 38 40 39 35 33 33 33 29 27 28 26 26 28 29 25 21 20 21 22 25 25 20 19 21 26 31 32 30 31 31 31 32 32 30 29 29 30 31 33 33 33 35 36 39 41 43 44 46 48 49 49 52 55 56 57 58 58 60 62 62 63 64 65 64 61 59 55 45
40 39 40 43 43 40 39 39 37 37 38 38 38 38 38 38 38 38 38 39 40 39 37 34 33 33 32 30 29 28 26 27 30 30 26 22 23 26 26 27 26 22 21 25 29 31 29 29 32 32 32 33 32 30 29 31 32 33 33 33 32 34 36 38 39 40 43 45 46 47 49 51 55 57 58 58 57 59 62 63 63 64 66 66 63 62 60 52
42 41 41 43 43 41 40 40 37 37 38 38 38 38 38 38 38 38 38 39 40 37 33 34 34 32 29 29 30 29 27 28 31 30 27 23 25 29 28 26 25 24 26 29 29 27 27 30 34 33 33 33 32 32 32 33 35 34 33 34 34 34 36 37 37 39 43 44 44 45 48 51 54 57 57 58 59 59 62 64 63 63 65 67 66 65 64 59
44 42 41 43 43 42 41 40 37 37 37 37 37 37 37 37 37 37 37 38 40 36 32 34 35 31 29 29 31 32 29 29 31 31 28 26 26 30 30 27 26 27 30 31 30 28 29 33 35 34 34 34 33 34 34 34 37 36 35 36 35 35 38 38 38 40 41 42 43 45 47 50 53 56 57 59 60 60 62 64 63 62 63 66 68 68 67 65
45 43 40 41 44 44 42 39 37 36 37 38 37 36 37 37 36 37 36 36 39 38 33 35 37 33 30 30 33 35 32 30 31 31 29 27 27 29 32 30 28 29 30 30 30 32 33 35 36 36 36 35 35 36 34 35 37 38 38 38 37 38 39 39 39 40 40 40 42 45 47 49 52 54 56 58 61 62 63 64 63 62 62 65 68 68 69 70
46 43 40 42 45 44 41 38 36 37 38 38 37 36 37 37 36 36 36 34 37 40 35 35 39 37 33 33 34 34 34 33 31 29 29 28 27 28 31 31 30 31 30 29 31 33 34 36 37 37 38 37 38 38 36 37 38 39 40 39 38 40 40 39 41 41 39 40 43 45 47 47 49 53 55 56 60 63 65 66 65 63 63 65 69 69 70 73
45 42 41 44 44 42 40 37 36 38 39 38 37 37 37 37 36 36 37 35 35 38 34 34 40 40 36 36 33 31 34 35 32 30 29 30 29 27 29 32 31 32 32 31 31 32 33 34 34 36 38 38 38 37 36 38 38 38 39 38 38 39 39 39 40 40 38 41 43 45 46 47 48 51 54 55 58 61 64 67 68 67 65 65 69 71 71 73
44 42 42 43 41 40 38 37 36 39 39 37 37 38 37 37 37 37 37 36 35 35 33 34 40 41 39 38 34 30 34 35 33 32 31 30 30 29 31 33 31 32 34 32 32 33 32 32 32 34 36 36 35 34 34 36 36 36 37 37 38 38 37 38 39 38 39 41 41 42 44 47 48 49 52 54 57 59 62 66 69 69 69 67 69 71 72 74
44 42 41 41 40 39 37 36 37 38 39 38 38 38 38 39 40 38 38 37 35 34 34 34 40 43 41 39 37 34 35 35 35 35 32 30 30 31 34 35 32 33 35 33 33 34 32 31 32 34 35 35 35 34 35 36 36 36 36 36 36 36 36 37 37 38 40 41 40 41 43 45 47 48 51 54 56 58 60 64 68 70 71 70 71 72 72 73
41 39 39 39 39 38 36 36 37 38 39 39 38 39 40 41 41 40 39 36 34 34 33 33 38 42 41 41 41 38 36 36 35 36 34 31 29 30 34 36 35 34 35 34 33 32 31 31 32 34 36 36 36 34 34 35 35 34 34 33 33 32 33 33 33 35 38 39 40 42 43 43 45 47 50 53 56 58 60 63 66 69 72 72 72 73 73 72
Wind_Direction
222 225 228 230 232 234 236 237 238 239 239 240 241 242 242 243 244 244 245 246 246 246 246 245 245 244 244 243 243 244 244 245 244 245 246 247 247 246 246 246 246 245 244 243 243 243 243 243 243 243 241 241 242 241 241 239 237 240 243 244 241 247 264 266 283 303 311 348 335 309 333 353 358 9 8 6 14 17 17 16 16 18 19 20 20 21 23 26
222 226 228 231 233 235 237 239 240 242 243 243 244 244 245 245 245 246 246 246 246 247 247 247 247 246 245 244 244 243 244 244 244 244 245 245 245 246 246 246 246 246 245 244 243 243 242 242 241 241 241 241 242 241 242 242 238 237 239 244 245 248 259 261 271 283 296 305 290 302 330 348 355 9 10 2 10 15 15 16 13 15 17 18 19 19 20 24
226 229 231 234 236 238 240 241 242 244 245 246 247 248 248 248 249 249 248 248 248 248 247 247 247 247 246 246 245 244 244 244 243 244 244 244 245 246 246 246 246 246 246 245 244 243 242 241 241 240 241 241 241 241 242 243 241 236 235 242 246 242 247 258 268 271 275 284 278 294 335 351 359 7 4 359 5 9 13 15 11 12 14 16 16 17 18 20
230 234 236 239 241 244 246 247 248 249 250 251 251 252 252 252 252 252 252 252 251 251 250 249 248 247 247 247 246 245 245 244 243 243 244 244 244 245 245 246 246 246 246 246 245 244 242 241 240 240 240 240 241 241 242 243 243 239 235 241 248 243 247 258 261 259 258 273 280 278 342 360 5 347 347 356 1 2 10 13 9 8 11 13 14 14 15 17
237 240 242 244 246 248 251 253 254 256 257 257 257 258 258 258 257 256 256 256 255 254 253 253 252 251 249 248 247 247 246 244 242 244 244 243 243 243 244 244 245 245 245 245 245 244 243 242 241 240 240 240 240 241 242 242 243 241 237 239 246 246 249 255 254 251 247 247 263 262 238 300 325 307 332 353 355 351 358 6 6 5 7 10 11 11 12 13
243 246 248 250 252 254 256 257 259 260 261 262 262 263 262 262 262 261 260 260 259 258 257 256 255 254 253 252 250 249 248 245 243 244 244 241 242 242 243 244 244 244 244 244 244 243 243 242 241 240 240 240 240 241 241 241 241 241 239 238 241 242 242 245 245 240 237 235 246 253 245 250 261 279 313 339 347 345 341 348 357 1 3 7 8 8 9 10
250 252 255 257 259 261 262 264 264 265 266 266 266 266 266 265 265 265 264 263 262 261 260 258 257 256 255 254 253 252 250 248 245 245 245 242 241 242 242 242 243 243 244 243 243 243 242 242 241 241 240 239 239 240 241 240 239 239 237 236 237 238 236 236 237 233 231 234 243 250 249 255 259 260 276 295 325 338 325 329 345 355 359 3 5 5 6 7
257 259 261 263 265 267 268 269 270 270 270 270 270 269 269 269 268 267 267 266 265 264 262 261 259 258 256 255 254 254 253 251 248 247 247 245 241 241 241 241 242 243 243 243 243 242 242 241 241 240 239 239 239 239 240 239 237 237 236 234 233 235 235 236 237 235 238 246 250 249 247 256 259 255 265 275 291 312 310 318 335 347 354 359 2 2 3 4
263 265 266 267 269 270 271 272 273 273 274 274 274 273 273 273 272 272 271 269 268 267 265 264 262 260 259 257 256 255 254 253 252 250 249 248 244 242 241 241 241 241 242 242 242 242 242 240 240 239 239 239 238 238 238 238 237 236 236 235 233 233 236 237 238 240 245 251 251 248 247 254 257 254 261 276 294 303 300 312 330 339 347 355 359 360 360 1
268 269 270 271 272 273 274 275 276 276 277 277 276 276 277 276 276 275 274 273 271 270 269 267 265 263 262 260 258 257 256 255 254 253 251 250 248 245 243 242 241 241 241 241 241 241 241 240 239 239 239 238 237 237 237 237 236 234 234 235 234 233 233 234 236 239 240 243 247 250 251 252 251 251 255 262 276 286 290 303 321 328 338 350 356 357 357 356
270 271 273 274 275 276 277 278 278 279 279 279 279 279 279 279 278 277 276 274 273 272 271 270 268 267 265 263 261 260 259 257 255 254 253 252 251 249 246 244 243 242 241 241 240 240 240 239 239 237 237 237 237 237 236 235 234 233 233 233 233 233 232 231 233 235 235 237 244 250 251 253 253 252 249 248 256 267 275 290 308 320 330 345 352 354 355 352
273 275 276 276 277 278 279 280 280 280 280 280 280 280 280 280 279 278 277 276 275 274 273 272 271 270 268 267 265 263 261 260 257 255 254 253 253 252 250 247 245 243 242 241 240 240 239 239 238 236 235 236 235 236 235 234 233 232 232 231 231 232 232 231 232 234 235 235 238 242 243 247 254 253 245 243 251 264 271 276 291 313 323 338 348 350 351 350
277 278 279 280 281 281 282 282 282 282 282 282 282 282 282 281 280 280 279 278 277 276 275 274 273 272 271 269 268 266 265 263 260 257 255 253 252 252 252 250 248 245 243 242 241 240 239 238 237 235 235 235 234 235 234 234 233 231 230 230 230 231 231 231 231 232 234 234 237 240 239 240 246 248 243 240 242 256 267 265 272 298 313 325 339 345 347 348
280 282 283 284 285 285 286 285 285 285 285 285 285 285 284 283 282 281 280 279 278 277 276 275 275 274 273 272 270 269 267 265 263 260 257 254 252 251 251 251 250 247 245 243 242 241 239 238 236 235 235 233 232 233 233 233 233 230 229 229 230 230 230 230 230 231 232 233 236 240 240 239 242 244 244 242 237 242 254 254 259 274 293 305 322 338 340 343
282 284 286 287 288 288 289 289 289 290 290 289 288 288 287 285 284 283 281 280 279 278 277 276 276 276 275 274 272 271 269 267 265 263 259 256 252 250 248 248 248 248 246 243 242 241 240 238 236 235 235 233 232 232 232 232 232 230 228 228 229 229 229 229 230 230 230 232 235 237 238 238 239 242 244 241 236 235 241 247 251 254 269 286 299 324 333 335
283 285 287 288 289 290 291 292 293 293 293 292 292 291 289 288 287 286 284 282 281 279 278 278 277 277 276 274 273 272 270 268 266 264 261 258 254 250 247 246 246 246 245 243 242 241 240 239 237 236 235 233 232 231 231 231 231 230 228 227 228 229 228 228 229 229 229 231 233 234 236 236 237 239 240 240 237 235 238 244 246 242 250 269 281 302 323 326
282 284 286 287 289 290 292 293 293 294 294 293 293 293 292 291 290 288 287 285 284 282 280 279 278 277 276 275 274 272 271 268 266 264 262 259 255 251 247 244 243 243 243 242 241 240 239 239 237 236 235 233 232 231 230 230 230 229 228 227 227 229 228 227 228 228 227 230 232 232 233 235 237 238 238 238 240 239 237 237 239 236 240 255 267 282 306 317
281 283 285 286 288 289 291 292 293 293 294 294 294 294 294 294 292 291 290 288 287 285 283 281 279 277 276 275 273 272 270 268 266 263 261 259 256 252 248 244 242 241 241 240 239 238 238 237 237 236 235 234 232 232 230 230 230 229 228 227 227 228 228 226 227 227 226 228 229 230 230 232 234 236 236 237 239 240 235 233 236 234 235 246 255 267 284 304
280 282 284 285 287 289 290 291 293 294 295 295 295 296 295 295 294 293 292 291 289 287 285 283 280 278 276 274 272 270 268 266 265 262 260 258 256 253 249 245 242 239 239 238 238 237 237 236 236 236 235 234 233 232 231 230 230 229 227 227 226 227 227 226 225 225 225 226 227 228 228 229 231 233 236 237 238 239 237 234 235 235 235 238 243 255 268 283
280 282 284 285 287 289 290 292 293 294 295 296 296 296 296 296 295 295 293 292 290 289 287 284 282 279 277 274 272 269 267 265 263 261 259 257 255 252 249 245 242 239 237 236 236 236 236 236 235 235 235 234 233 233 231 230 229 228 227 226 226 227 227 226 225 225 225 225 226 227 226 227 231 235 238 238 237 239 239 236 236 241 237 232 237 246 257 270
280 282 284 286 288 289 291 292 293 294 295 296 296 296 296 296 296 295 294 293 291 290 288 286 284 281 278 275 272 270 267 264 262 260 258 256 253 251 249 245 241 238 236 235 234 234 235 235 235 235 235 235 234 233 232 230 229 228 227 225 224 225 226 225 225 224 224 225 225 226 226 227 229 234 237 236 236 236 236 234 234 238 234 227 233 241 251 265
281 283 285 287 288 290 291 292 293 294 295 295 296 296 296 296 296 296 295 295 293 292 291 289 286 283 280 278 275 271 269 265 263 260 257 255 253 250 247 245 241 238 235 234 233 233 233 233 234 234 235 235 234 233 231 229 229 228 226 225 224 225 225 225 224 224 224 225 225 225 225 225 226 229 232 233 233 232 231 231 231 231 229 224 229 238 248 261
283 285 286 287 289 290 291 292 293 294 294 295 296 296 297 297 297 298 298 298 297 296 295 292 289 286 283 280 277 274 270 267 264 262 258 255 252 249 247 244 241 237 235 233 232 232 232 233 233 233 231 231 230 230 229 228 229 228 226 225 224 224 225 225 224 222 224 224 224 224 224 224 223 225 230 231 231 231 230 229 227 226 227 225 228 237 245 256
284 285 286 287 288 289 291 292 293 294 295 296 297 298 298 298 299 299 300 300 300 300 299 296 295 292 288 283 279 276 272 269 266 263 260 256 252 250 247 244 241 237 235 233 231 230 231 231 231 230 229 229 229 229 229 228 229 229 227 225 224 224 223 224 224 221 222 224 222 222 222 222 223 224 228 230 231 231 229 226 222 221 224 224 227 236 243 251
284 285 286 287 288 290 291 293 294 295 296 297 298 298 298 299 299 300 301 302 301 301 301 300 302 299 294 289 283 278 274 270 266 264 261 258 253 250 247 244 241 237 234 232 230 229 229 230 230 229 229 229 229 229 229 228 228 229 227 225 224 224 222 222 223 222 223 224 222 221 221 221 221 223 226 228 229 229 226 223 219 218 221 224 227 234 240 246
284 286 287 288 289 291 292 293 294 295 296 296 297 297 297 298 299 299 301 302 303 302 300 302 305 303 300 295 287 281 275 271 268 265 262 259 254 250 246 243 240 237 234 231 230 229 229 229 230 229 229 229 228 229 229 229 230 229 228 227 226 226 224 221 223 224 224 224 222 220 221 221 219 221 224 227 229 227 223 221 220 220 222 226 230 235 240 243
285 286 288 289 289 290 291 292 293 294 294 295 296 297 297 297 297 298 299 301 304 304 301 302 305 306 306 301 291 284 277 273 270 266 263 260 255 251 246 242 239 236 233 231 229 228 228 228 229 229 229 229 228 228 229 229 229 229 229 229 228 227 225 221 220 222 222 223 223 220 219 220 219 218 219 220 224 225 223 222 222 224 227 230 234 238 240 240
286 285 287 288 288 289 290 291 292 293 294 295 297 297 298 298 298 298 297 299 302 303 303 303 303 307 310 305 295 286 279 274 271 267 265 262 257 252 247 242 238 236 233 230 229 228 227 228 228 228 229 229 228 228 228 229 229 229 229 229 227 226 224 220 218 220 221 221 223 221 217 217 218 215 212 212 216 220 222 222 223 224 228 233 237 237 236 233
284 284 284 286 287 288 289 290 292 293 294 296 297 298 299 299 299 299 298 298 298 299 302 304 303 305 309 308 299 288 281 275 271 270 267 264 260 254 249 243 239 235 232 230 229 227 227 227 228 228 228 228 228 228 229 230 229 228 229 228 227 226 225 223 221 222 224 223 223 223 219 216 215 212 209 209 209 211 214 216 219 222 224 228 231 231 230 228
281 283 283 284 286 288 288 290 291 291 293 295 295 296 297 297 298 299 299 299 298 297 299 301 304 304 306 308 301 290 282 276 273 271 269 266 262 256 250 245 239 235 232 230 229 227 227 227 227 228 229 229 229 229 230 229 227 228 229 228 227 227 226 225 224 223 224 225 224 222 221 218 215 213 211 209 205 205 208 210 212 216 216 218 217 214 221 229
280 282 283 284 285 287 288 289 290 290 291 292 293 293 293 293 295 296 298 300 298 297 297 298 302 303 302 304 302 291 283 278 276 275 271 267 262 256 252 246 240 235 232 229 228 227 227 227 227 228 229 229 229 230 230 229 227 228 229 229 227 226 226 226 224 223 223 226 225 222 221 219 217 216 214 210 205 204 207 209 210 212 211 211 211 207 214 226
280 281 283 284 285 286 287 288 289 289 289 290 290 290 290 290 292 294 296 298 299 297 296 296 298 300 300 302 300 291 283 281 280 278 274 269 263 258 252 247 241 236 232 230 228 227 227 227 227 228 228 229 229 230 230 229 229 228 229 229 228 227 227 226 225 224 223 225 226 223 221 219 218 219 216 212 208 206 206 208 209 210 209 210 210 210 214 216
281 281 283 284 285 286 287 287 287 287 288 289 289 289 288 288 291 293 294 297 298 296 296 296 296 297 299 300 298 292 284 282 283 282 278 270 264 259 252 246 241 236 233 230 228 227 227 227 227 227 228 229 229 230 231 230 229 229 228 229 228 228 229 227 226 226 225 225 227 225 222 219 218 220 218 215 211 208 207 207 208 209 210 212 211 211 211 211
281 283 283 284 285 286 286 287 287 288 289 289 289 288 287 288 290 291 294 297 296 295 297 297 294 294 296 298 297 291 281 280 284 285 280 272 266 259 250 244 239 235 232 230 228 227 227 226 227 228 228 229 230 230 231 231 230 230 229 229 228 229 230 229 227 227 226 226 227 226 224 221 220 221 220 216 212 210 208 207 208 210 213 216 215 214 216 218
282 283 284 285 286 286 287 287 288 289 289 290 288 286 285 287 288 289 293 296 293 293 296 296 292 292 292 294 294 288 279 278 284 286 282 275 267 257 249 243 238 232 231 228 225 225 226 226 226 227 228 228 229 230 230 231 230 230 230 229 228 229 230 230 228 228 227 227 226 226 225 222 222 222 221 218 214 212 212 211 212 216 220 223 223 223 223 227
283 283 284 286 285 286 287 287 288 288 289 289 286 283 284 286 286 287 291 293 289 290 293 294 292 290 288 289 290 286 279 276 281 284 282 274 265 256 250 245 238 232 230 227 223 223 225 225 226 227 228 228 229 230 230 230 231 231 231 230 229 229 230 230 230 229 228 226 225 225 225 223 223 224 222 219 216 215 216 218 220 223 226 229 228 226 226 230
283 283 285 285 285 285 286 286 286 287 288 287 283 280 281 283 283 284 287 288 287 288 290 289 289 287 284 283 286 286 279 272 274 278 280 274 263 255 250 244 237 232 229 225 222 222 222 223 225 226 227 228 229 230 231 230 231 232 231 231 230 230 231 230 230 230 229 227 224 224 225 224 224 225 224 222 220 218 218 222 225 227 230 234 234 232 231 232
283 284 284 283 283 284 285 285 285 285 286 283 278 277 278 279 281 283 284 284 285 287 286 284 285 285 280 278 281 283 276 268 268 272 277 276 262 254 252 247 239 234 231 225 222 223 221 220 224 225 225 228 229 230 231 231 232 232 232 232 231 230 232 230 230 230 230 228 225 222 222 223 224 225 225 224 222 221 220 221 224 226 227 231 233 231 231 231
283 283 283 282 283 284 284 284 285 284 283 279 276 275 276 278 281 283 284 283 283 284 283 280 280 280 278 275 274 275 273 268 264 264 269 273 263 254 253 250 242 236 232 227 225 225 220 219 223 225 225 227 229 231 231 231 232 233 233 233 232 231 232 232 230 230 230 228 226 223 222 223 224 224 224 225 224 223 222 221 222 223 222 222 223 223 226 229
283 284 283 282 283 284 284 284 284 282 279 276 274 274 275 278 282 284 284 283 284 282 280 278 276 275 275 273 267 266 269 268 262 259 259 264 265 264 264 259 249 240 233 231 231 227 222 221 223 226 227 227 230 233 232 231 233 234 234 235 234 233 234 233 231 231 231 229 227 225 223 224 224 223 224 225 225 225 224 224 223 223 222 221 221 221 223 227
284 286 284 283 284 284 284 284 282 280 277 274 273 273 276 280 283 284 284 285 286 284 279 275 272 270 270 269 266 262 263 263 261 259 255 258 265 272 270 257 246 239 234 234 235 230 225 224 223 227 231 230 231 235 234 233 234 236 236 235 236 236 236 235 234 233 232 229 227 225 224 225 225 225 225 225 225 225 225 225 225 224 223 224 222 220 219 223
286 287 284 283 284 284 282 282 280 278 275 273 272 274 278 281 283 284 286 287 287 284 281 274 268 268 267 265 264 260 258 259 260 259 254 254 261 264 255 248 245 244 239 235 234 232 230 229 227 228 232 233 234 237 237 237 238 239 239 237 236 237 237 237 237 236 234 230 227 225 224 226 226 226 226 224 224 225 224 224 224 222 223 224 223 219 217 219
286 287 285 283 284 283 281 279 279 277 274 272 273 275 279 282 284 286 288 289 286 282 280 274 265 263 264 263 261 259 257 257 258 257 255 253 256 255 251 251 254 255 248 237 231 232 233 233 233 231 231 234 238 240 242 244 243 243 242 239 237 238 238 238 238 238 237 234 230 225 224 226 225 225 226 224 223 224 225 224 223 222 222 223 223 220 217 217
285 286 284 283 283 282 279 277 278 276 273 272 274 277 281 283 285 288 289 289 285 280 277 270 261 257 260 262 261 258 255 254 254 255 255 252 252 253 252 254 256 254 246 237 233 235 236 236 237 236 234 236 239 241 243 246 246 245 245 244 241 241 241 239 238 239 239 237 233 228 225 226 226 225 224 224 222 223 224 224 224 223 221 222 223 221 217 215
284 286 284 282 282 282 278 275 275 274 273 274 276 279 282 284 286 289 290 288 283 278 272 266 258 252 254 259 261 260 254 252 252 253 254 250 249 253 255 254 254 248 241 239 239 241 240 238 239 239 238 238 239 239 240 245 248 247 248 249 247 246 246 242 240 240 240 238 236 232 229 227 227 225 224 224 224 223 223 224 224 224 222 221 222 221 217 214
283 286 285 282 281 279 274 273 274 273 273 275 278 280 282 284 286 289 290 288 283 276 267 261 256 248 247 254 260 260 257 253 252 251 251 248 247 253 256 253 248 244 241 241 243 243 241 240 241 242 242 242 242 242 241 245 250 250 250 251 250 250 250 247 244 242 241 240 238 236 233 230 229 227 224 223 224 224 224 224 224 225 223 221 222 222 219 215
283 287 285 280 277 275 272 272 274 273 273 275 277 280 282 285 287 289 291 290 284 277 265 258 254 245 242 251 255 256 257 256 254 251 249 247 246 250 254 253 248 247 246 244 243 241 240 242 244 246 246 246 246 247 246 247 252 254 254 254 254 254 252 251 249 245 242 241 241 239 236 233 232 230 226 224 224 224 224 224 224 224 224 223 222 222 221 218
285 288 282 275 273 273 272 272 272 272 273 274 277 281 283 286 290 292 293 291 285 279 270 259 252 242 238 247 251 251 254 256 255 252 249 246 245 247 253 255 251 250 251 248 245 243 243 244 246 249 250 250 250 252 252 252 254 256 258 257 256 256 255 253 252 248 244 243 242 241 238 235 235 233 230 226 224 224 224 225 225 223 223 223 223 222 221 220
286 283 276 273 274 273 271 270 270 271 273 275 277 281 284 289 293 295 296 294 288 282 274 259 248 238 233 240 244 247 251 254 255 253 248 245 243 243 250 254 252 252 251 249 248 247 245 245 247 249 251 252 253 253 254 255 254 254 257 258 257 257 257 256 255 252 249 246 243 242 241 238 236 235 233 230 227 225 224 224 225 223 222 222 222 222 221 221
282 278 275 275 274 269 267 268 270 272 274 275 278 282 286 291 295 297 297 296 292 285 276 260 244 234 230 234 237 241 248 251 253 252 249 246 243 241 246 250 252 253 252 250 250 250 248 247 247 248 250 252 253 253 253 254 255 254 255 257 258 259 258 258 258 256 254 251 247 244 243 241 239 236 236 234 231 229 226 224 225 224 223 222 222 223 222 221
278 275 275 275 270 265 264 268 272 274 275 276 278 282 286 291 296 298 297 297 295 289 279 262 243 232 230 232 233 237 243 246 250 251 249 247 244 242 245 246 248 253 256 253 252 251 249 247 247 248 250 251 252 252 252 254 255 256 256 257 258 259 258 257 258 258 256 254 251 248 245 243 241 239 238 236 234 232 230 227 225 224 224 223 222 223 223 223
275 273 275 273 267 263 265 270 274 274 274 275 277 280 285 290 295 299 299 297 297 293 285 269 247 234 232 234 233 234 237 240 245 249 249 247 246 246 247 246 245 249 255 255 253 253 252 250 248 248 250 251 251 251 252 253 254 255 256 255 256 258 259 259 258 258 257 256 253 251 247 244 243 242 240 238 235 234 233 231 228 225 224 223 222 223 223 223